Metcalfe, MS

2:53 PM CDT on July 23, 2016 (GMT -0500)
Mid Delta Regional

Weather History for KGLH - April, 2014

Change the Weather History Date:

Tuesday, April 29, 2014

  Actual Average Record
Temperature  
Mean Temperature 64 °F 68 °F  
Max Temperature 74 °F 78 °F 90 °F (1937)
Min Temperature 53 °F 57 °F 41 °F (1934)
Degree Days  
Heating Degree Days 1 1  
Month to date heating degree days 124 115  
Since 1 July heating degree days 3165 2760  
Cooling Degree Days 0 4  
Month to date cooling degree days 69 59  
Year to date cooling degree days 74 81  
Growing Degree Days 14 (Base 50)    
Moisture  
Dew Point 50 °F    
Average Humidity 64    
Maximum Humidity 86    
Minimum Humidity 41    
Precipitation  
Precipitation 0.00 in 0.14 in 4.05 in (1991)
Month to date precipitation 9.07 4.66  
Year to date precipitation 18.88 19.20  
Sea Level Pressure  
Sea Level Pressure 29.73 in    
Wind  
Wind Speed 7 mph (West)    
Max Wind Speed 17 mph    
Max Gust Speed 20 mph    
Visibility 10 miles    
Events      
T = Trace of Precipitation, MM = Missing Value Source: NWS Daily Summary

Daily Weather History Graph

Daily Weather History Graph

Search for Another Location

Airport or City:

Trip Planner

Search our weather history database for the weather conditions in past years. The results will help you decide how hot, cold, wet, or windy it might be!

Date:

Astronomy

Apr. 29, 2014 Rise Set
Actual Time 6:17 AM CDT 7:45 PM CDT
Civil Twilight 5:51 AM CDT 8:11 PM CDT
Nautical Twilight 5:19 AM CDT 8:43 PM CDT
Astronomical Twilight 4:46 AM CDT 9:16 PM CDT
Moon 6:35 AM CDT (4/29) 8:24 PM CDT (4/29)
Length of Visible Light 14h 20m
Length of Day
13h 27m
New Moon, 0% of the Moon is Illuminated
Apr 29
New Moon
May 6
First Quarter
May 14
Full
May 21
Last Quarter
May 28
New

Hourly Weather History & Observations

Time (CDT) Temp. Dew Point Humidity Pressure Visibility Wind Dir Wind Speed Gust Speed Precip Events Conditions
12:53 AM 64.9 °F 50.0 °F 58% 29.68 in 10.0 mi West 6.9 mph - N/A   Clear
1:53 AM 64.9 °F 48.0 °F 54% 29.67 in 10.0 mi NW 5.8 mph - N/A   Clear
2:53 AM 61.0 °F 50.0 °F 67% 29.67 in 10.0 mi Calm Calm - N/A   Clear
3:53 AM 59.0 °F 52.0 °F 78% 29.64 in 10.0 mi Calm Calm - N/A   Clear
4:53 AM 57.0 °F 53.1 °F 87% 29.64 in 10.0 mi SE 3.5 mph - N/A   Clear
5:53 AM 55.9 °F 51.1 °F 84% 29.67 in 10.0 mi South 6.9 mph - N/A   Clear
6:53 AM 55.9 °F 50.0 °F 80% 29.69 in 10.0 mi SSW 5.8 mph - N/A   Clear
7:53 AM 62.6 °F 53.6 °F 72% 29.68 in 10.0 mi SSW 5.8 mph - N/A   Clear
8:53 AM 66.9 °F 55.0 °F 66% 29.74 in 10.0 mi WSW 5.8 mph - N/A   Clear
9:53 AM 71.1 °F 55.9 °F 59% 29.75 in 10.0 mi West 9.2 mph - N/A   Clear
10:53 AM 72.0 °F 55.0 °F 55% 29.77 in 10.0 mi WNW 8.1 mph - N/A   Clear
11:53 AM 72.0 °F 50.0 °F 46% 29.78 in 10.0 mi NW 11.5 mph - N/A   Overcast
12:53 PM 70.0 °F 46.0 °F 42% 29.77 in 10.0 mi NW 15.0 mph - N/A   Mostly Cloudy
1:53 PM 71.1 °F 50.0 °F 47% 29.75 in 10.0 mi NNW 10.4 mph - N/A   Mostly Cloudy
2:53 PM 73.0 °F 48.9 °F 42% 29.75 in 10.0 mi NNW 9.2 mph - N/A   Scattered Clouds
3:53 PM 73.0 °F 50.0 °F 44% 29.73 in 10.0 mi NNW 4.6 mph - N/A   Partly Cloudy
4:53 PM 73.9 °F 50.0 °F 43% 29.73 in 10.0 mi WNW 10.4 mph - N/A   Clear
5:53 PM 71.1 °F 46.9 °F 42% 29.74 in 10.0 mi West 9.2 mph - N/A   Overcast
6:53 PM 70.0 °F 46.0 °F 42% 29.75 in 10.0 mi West 8.1 mph - N/A   Mostly Cloudy
7:53 PM 64.9 °F 48.9 °F 56% 29.77 in 10.0 mi WSW 6.9 mph - N/A   Overcast
8:53 PM 62.1 °F 48.0 °F 60% 29.79 in 10.0 mi SSW 3.5 mph - N/A   Clear
9:53 PM 60.8 °F 50.0 °F 68% 29.79 in 10.0 mi SSW 3.5 mph - N/A   Clear
10:53 PM 59.0 °F 46.9 °F 64% 29.83 in 10.0 mi WSW 6.9 mph - N/A   Clear
11:53 PM 62.1 °F 48.9 °F 62% 29.83 in 10.0 mi WNW 10.4 mph - N/A   Clear